Weather History for KPKV - October, 2013

Change the Weather History Date:

Tuesday, October 22, 2013

  Actual Average (KVCT) Record (KVCT)
Temperature  
Mean Temperature 66 °F 71 °F  
Max Temperature 77 °F 82 °F 101 °F (1926)
Min Temperature 55 °F 59 °F 40 °F (1910)
Degree Days  
Heating Degree Days 0 1  
Month to date heating degree days 7  
Since 1 July heating degree days 8  
Cooling Degree Days 2 7  
Month to date cooling degree days 193  
Year to date cooling degree days 2991  
Growing Degree Days 16 (Base 50)    
Moisture  
Dew Point 56 °F    
Average Humidity 71    
Maximum Humidity 96    
Minimum Humidity 36    
Precipitation  
Precipitation 0.00 in 0.16 in 2.38 in (1954)
Month to date precipitation 3.39  
Year to date precipitation 34.42  
Snow  
Snow 0.00 in - - ()
Month to date snowfall  
Since 1 July snowfall  
Since 1 September snowfall  
Snow Depth -    
Sea Level Pressure  
Sea Level Pressure 30.05 in    
Wind  
Wind Speed 10 mph (North)    
Max Wind Speed 20 mph    
Max Gust Speed 24 mph    
Visibility 10 miles    
Events      
T = Trace of Precipitation, MM = Missing Value Source: NWS Daily Summary

Daily Weather History Graph

Daily Weather History Graph

Search for Another Location

Airport or City:

Trip Planner

Search our weather history database for the weather conditions in past years. The results will help you decide how hot, cold, wet, or windy it might be!

Date:

Astronomy

Oct. 22, 2013 Rise Set
Actual Time 7:32 AM CDT 6:49 PM CDT
Civil Twilight 7:08 AM CDT 7:13 PM CDT
Nautical Twilight 6:40 AM CDT 7:41 PM CDT
Astronomical Twilight 6:13 AM CDT 8:08 PM CDT
Moon 9:43 PM CDT (10/22) 10:49 AM CDT (10/22)
Length of Visible Light 12h 05m
Length of Day
11h 17m
Waning Gibbous, 86% of the Moon is Illuminated
Oct 22
Waning Gibbous
Oct 26
Last Quarter
Nov 3
New
Nov 9
First Quarter
Nov 17
Full

Hourly Weather History & Observations

Time (CDT) Temp. Dew Point Humidity Pressure Visibility Wind Dir Wind Speed Gust Speed Precip Events Conditions
12:15 AM 68.0 °F 66.7 °F 96% 29.98 in 5.0 mi NNE 5.8 mph - N/A   Mostly Cloudy
12:35 AM 68.4 °F 67.1 °F 96% 29.98 in 7.0 mi NNE 8.1 mph - N/A   Mostly Cloudy
12:55 AM 68.5 °F 67.3 °F 96% 29.99 in 7.0 mi North 10.4 mph - N/A   Mostly Cloudy
1:15 AM 68.2 °F 67.1 °F 96% 29.98 in 7.0 mi North 9.2 mph - N/A   Overcast
1:35 AM 68.4 °F 66.9 °F 95% 29.98 in 7.0 mi NNE 8.1 mph - N/A   Overcast
1:55 AM 68.4 °F 66.7 °F 95% 29.98 in 10.0 mi North 6.9 mph - N/A   Overcast
2:15 AM 68.0 °F 66.2 °F 94% 29.98 in 10.0 mi North 4.6 mph - N/A   Scattered Clouds
2:35 AM 66.6 °F 65.1 °F 95% 29.99 in 7.0 mi NW 5.8 mph - N/A   Clear
2:55 AM 64.6 °F 62.2 °F 92% 29.99 in 10.0 mi NNW 12.7 mph - N/A   Clear
3:15 AM 63.7 °F 60.1 °F 88% 29.99 in 10.0 mi North 11.5 mph - N/A   Clear
3:35 AM 63.5 °F 60.3 °F 89% 29.99 in 10.0 mi North 12.7 mph 18.4 mph N/A   Clear
3:55 AM 63.1 °F 60.6 °F 91% 29.99 in 10.0 mi North 11.5 mph - N/A   Clear
4:15 AM 63.0 °F 60.8 °F 93% 30.00 in 10.0 mi North 13.8 mph 19.6 mph N/A   Clear
4:35 AM 62.6 °F 60.1 °F 91% 30.00 in 10.0 mi NNW 13.8 mph 18.4 mph N/A   Clear
4:55 AM 62.4 °F 59.7 °F 91% 30.01 in 10.0 mi North 12.7 mph - N/A   Scattered Clouds
5:15 AM 62.2 °F 59.4 °F 90% 30.01 in 10.0 mi North 12.7 mph - N/A   Mostly Cloudy
5:35 AM 61.9 °F 59.0 °F 90% 30.01 in 10.0 mi North 13.8 mph 19.6 mph N/A   Clear
5:55 AM 61.7 °F 59.0 °F 91% 30.02 in 10.0 mi North 11.5 mph - N/A   Clear
6:15 AM 61.7 °F 59.0 °F 91% 30.03 in 10.0 mi NNW 10.4 mph - N/A   Clear
6:35 AM 61.2 °F 58.6 °F 91% 30.03 in 10.0 mi NNW 9.2 mph - N/A   Clear
6:55 AM 60.8 °F 58.5 °F 92% 30.04 in 10.0 mi NNW 9.2 mph - N/A   Clear
7:15 AM 60.4 °F 58.1 °F 92% 30.04 in 10.0 mi North 9.2 mph - N/A   Clear
7:35 AM 59.9 °F 57.6 °F 92% 30.06 in 10.0 mi NNW 9.2 mph - N/A   Clear
7:55 AM 59.9 °F 57.4 °F 91% 30.06 in 10.0 mi NNW 8.1 mph - N/A   Clear
8:15 AM 60.1 °F 57.6 °F 91% 30.07 in 10.0 mi NNW 11.5 mph - N/A   Clear
8:35 AM 60.8 °F 57.6 °F 89% 30.07 in 10.0 mi North 15.0 mph - N/A   Clear
8:55 AM 61.2 °F 57.4 °F 87% 30.07 in 10.0 mi North 17.3 mph - N/A   Clear
9:15 AM 62.2 °F 57.6 °F 85% 30.07 in 10.0 mi North 16.1 mph 24.2 mph N/A   Clear
9:35 AM 63.0 °F 57.2 °F 81% 30.08 in 10.0 mi North 19.6 mph 24.2 mph N/A   Clear
9:55 AM 64.4 °F 57.7 °F 79% 30.09 in 10.0 mi North 18.4 mph - N/A   Clear
10:15 AM 64.8 °F 57.7 °F 78% 30.10 in 10.0 mi North 18.4 mph 21.9 mph N/A   Clear
10:35 AM 64.8 °F 57.7 °F 78% 30.11 in 10.0 mi North 15.0 mph 20.7 mph N/A   Mostly Cloudy
10:55 AM 65.7 °F 57.9 °F 76% 30.11 in 10.0 mi North 11.5 mph - N/A   Mostly Cloudy
11:15 AM 67.5 °F 58.3 °F 72% 30.11 in 10.0 mi North 15.0 mph - N/A   Scattered Clouds
11:35 AM 68.0 °F 58.6 °F 72% 30.11 in 10.0 mi North 16.1 mph - N/A   Scattered Clouds
11:55 AM 69.3 °F 59.0 °F 70% 30.10 in 10.0 mi North 13.8 mph 23.0 mph N/A   Clear
12:15 PM 70.9 °F 59.2 °F 66% 30.09 in 10.0 mi North 12.7 mph 19.6 mph N/A   Clear
12:35 PM 71.8 °F 59.0 °F 64% 30.09 in 10.0 mi North 10.4 mph 18.4 mph N/A   Clear
12:55 PM 73.4 °F 59.7 °F 62% 30.09 in 10.0 mi North 11.5 mph 16.1 mph N/A   Clear
1:15 PM 74.7 °F 59.5 °F 59% 30.08 in 10.0 mi North 12.7 mph 17.3 mph N/A   Clear
1:35 PM 75.4 °F 59.2 °F 57% 30.06 in 10.0 mi North 16.1 mph 19.6 mph N/A   Clear
1:55 PM 76.3 °F 57.2 °F 52% 30.05 in 10.0 mi North 17.3 mph 24.2 mph N/A   Clear
2:15 PM 76.5 °F 55.6 °F 48% 30.05 in 10.0 mi North 16.1 mph 23.0 mph N/A   Clear
2:35 PM 76.3 °F 55.4 °F 48% 30.04 in 10.0 mi North 15.0 mph - N/A   Clear
2:55 PM 76.5 °F 53.8 °F 45% 30.04 in 10.0 mi North 18.4 mph 24.2 mph N/A   Clear
3:15 PM 76.8 °F 52.5 °F 43% 30.04 in 10.0 mi NNW 18.4 mph 21.9 mph N/A   Clear
3:35 PM 77.2 °F 49.8 °F 38% 30.03 in 10.0 mi North 16.1 mph 20.7 mph N/A   Clear
3:55 PM 77.2 °F 49.6 °F 38% 30.04 in 10.0 mi North 12.7 mph 23.0 mph N/A   Clear
4:15 PM 77.0 °F 48.4 °F 36% 30.03 in 10.0 mi NNE 12.7 mph - N/A   Clear
4:35 PM 76.8 °F 48.9 °F 37% 30.03 in 10.0 mi NNW 13.8 mph - N/A   Clear
4:55 PM 76.5 °F 47.8 °F 36% 30.03 in 10.0 mi North 11.5 mph - N/A   Clear
5:15 PM 76.1 °F 48.4 °F 38% 30.03 in 10.0 mi North 9.2 mph - N/A   Clear
5:35 PM 75.4 °F 48.4 °F 38% 30.03 in 10.0 mi NNW 9.2 mph - N/A   Clear
5:55 PM 74.7 °F 47.7 °F 38% 30.03 in 10.0 mi NNW 11.5 mph - N/A   Clear
6:15 PM 73.2 °F 47.1 °F 39% 30.04 in 10.0 mi NNW 11.5 mph - N/A   Clear
6:35 PM 70.9 °F 46.2 °F 41% 30.04 in 10.0 mi North 9.2 mph - N/A   Clear
6:55 PM 68.2 °F 46.8 °F 46% 30.05 in 10.0 mi North 8.1 mph - N/A   Clear
7:15 PM 64.6 °F 47.3 °F 53% 30.06 in 10.0 mi North 8.1 mph - N/A   Clear
7:35 PM 63.0 °F 46.9 °F 56% 30.06 in 10.0 mi North 6.9 mph - N/A   Clear
7:55 PM 61.9 °F 47.3 °F 59% 30.07 in 10.0 mi North 5.8 mph - N/A   Clear
8:15 PM 62.2 °F 47.3 °F 58% 30.08 in 10.0 mi North 4.6 mph - N/A   Clear
8:35 PM 63.0 °F 47.3 °F 57% 30.09 in 10.0 mi North 3.5 mph - N/A   Clear
8:55 PM 62.8 °F 47.3 °F 57% 30.09 in 10.0 mi North 3.5 mph - N/A   Clear
9:15 PM 62.1 °F 47.5 °F 59% 30.10 in 10.0 mi Calm Calm - N/A   Clear
9:35 PM 59.9 °F 47.7 °F 64% 30.10 in 10.0 mi Calm Calm - N/A   Clear
10:15 PM 58.8 °F 47.7 °F 66% 30.11 in 10.0 mi Calm Calm - N/A   Clear
10:35 PM 58.5 °F 47.3 °F 66% 30.11 in 10.0 mi Calm Calm - N/A   Clear
10:55 PM 58.1 °F 47.5 °F 68% 30.11 in 10.0 mi Calm Calm - N/A   Clear
11:15 PM 57.4 °F 47.7 °F 70% 30.11 in 10.0 mi NNW 4.6 mph - N/A   Clear
11:35 PM 56.3 °F 47.5 °F 72% 30.11 in 10.0 mi NW 4.6 mph - N/A   Clear
11:55 PM 55.4 °F 46.6 °F 72% 30.11 in 10.0 mi NNW 3.5 mph - N/A   Clear